Weather History for Woensdrecht, Netherlands

Change the Weather History Date:

Monday, December 31, 2012

  Actual Average Record
Temperature  
Mean Temperature 50 °F -  
Max Temperature 51 °F 41 °F 55 °F (2006)
Min Temperature 48 °F 33 °F 15 °F (2008)
Degree Days  
Heating Degree Days 16    
Moisture  
Dew Point 44 °F    
Average Humidity 83    
Maximum Humidity 93    
Minimum Humidity 76    
Precipitation  
Precipitation 0.00 in - - ()
Sea Level Pressure  
Sea Level Pressure 29.80 in    
Wind  
Wind Speed 15 mph ()    
Max Wind Speed 20 mph    
Max Gust Speed 33 mph    
Visibility 6.2 miles    
Events Rain    
Averages and records for this station are not official NWS values.
T = Trace of Precipitation, MM = Missing Value Source: Averaged Metar Reports

Daily Weather History Graph

Daily Weather History Graph

Search for Another Location

Airport:

Trip Planner

Search our weather history database for the weather conditions in past years. The results will help you decide how hot, cold, wet, or windy it might be!

Date:

Astronomy

Dec. 31, 2012 Rise Set
Actual Time 8:48 AM CET 4:43 PM CET
Civil Twilight 8:08 AM CET 5:23 PM CET
Nautical Twilight 7:25 AM CET 6:06 PM CET
Astronomical Twilight 6:44 AM CET 6:47 PM CET
Moon 8:23 PM CET (12/31) 9:59 AM CET (12/31)
Length of Visible Light 9h 15m
Length of Day
7h 55m
Waning Gibbous, 92% of the Moon is Illuminated
Dec 31
Waning Gibbous
Jan 5
Last Quarter
Jan 11
New
Jan 19
First Quarter
Jan 27
Full

Hourly Weather History & Observations

Time (CET) Temp. Dew Point Humidity Pressure Visibility Wind Dir Wind Speed Gust Speed Precip Events Conditions
12:25 AM 48.2 °F 42.8 °F 82% 29.98 in 6.2 mi SW 19.6 mph 31.1 mph N/A   Overcast
12:55 AM 48.2 °F 42.8 °F 82% 29.98 in 6.2 mi SW 17.3 mph - N/A   Overcast
1:25 AM 48.2 °F 42.8 °F 82% 29.98 in 6.2 mi SW 15.0 mph - N/A   Overcast
1:55 AM 48.2 °F 42.8 °F 82% 29.98 in 6.2 mi SW 18.4 mph - N/A   Mostly Cloudy
2:03 AM 48.2 °F 42.8 °F 82% 29.98 in 6.2 mi SW 18.4 mph - N/A   Mostly Cloudy
2:12 AM 48.2 °F 42.8 °F 82% 29.98 in 6.2 mi SW 18.4 mph - N/A   Mostly Cloudy
2:16 AM 48.2 °F 42.8 °F 82% 29.95 in 6.2 mi SW 18.4 mph - N/A   Overcast
2:20 AM 48.2 °F 42.8 °F 82% 29.95 in 6.2 mi SW 17.3 mph - N/A   Overcast
2:25 AM 48.2 °F 42.8 °F 82% 29.95 in 6.2 mi SW 16.1 mph 27.6 mph N/A   Overcast
2:46 AM 48.2 °F 42.8 °F 82% 29.95 in 6.2 mi SW 16.1 mph - N/A   Mostly Cloudy
2:55 AM 48.2 °F 42.8 °F 82% 29.95 in 6.2 mi SW 17.3 mph - N/A   Mostly Cloudy
3:00 AM 48.2 °F 42.8 °F 82% 29.95 in 6.2 mi SW 16.1 mph - N/A   Mostly Cloudy
3:04 AM 48.2 °F 42.8 °F 82% 29.95 in 6.2 mi SW 15.0 mph - N/A   Mostly Cloudy
3:25 AM 48.2 °F 42.8 °F 82% 29.95 in 6.2 mi SW 15.0 mph - N/A   Overcast
3:55 AM 48.2 °F 42.8 °F 82% 29.95 in 6.2 mi SW 16.1 mph - N/A   Mostly Cloudy
3:59 AM 48.2 °F 42.8 °F 82% 29.95 in 6.2 mi SW 16.1 mph - N/A   Mostly Cloudy
4:13 AM 48.2 °F 42.8 °F 82% 29.95 in 6.2 mi SW 15.0 mph 27.6 mph N/A   Overcast
4:25 AM 48.2 °F 42.8 °F 82% 29.92 in 6.2 mi SW 17.3 mph 29.9 mph N/A   Mostly Cloudy
4:35 AM 48.2 °F 42.8 °F 82% 29.92 in 6.2 mi SW 18.4 mph - N/A   Mostly Cloudy
4:42 AM 48.2 °F 42.8 °F 82% 29.92 in 6.2 mi SW 16.1 mph 27.6 mph N/A   Mostly Cloudy
4:47 AM 48.2 °F 42.8 °F 82% 29.92 in 6.2 mi SW 15.0 mph - N/A   Mostly Cloudy
4:55 AM 48.2 °F 42.8 °F 82% 29.92 in 6.2 mi SW 16.1 mph 29.9 mph N/A   Mostly Cloudy
5:11 AM 48.2 °F 42.8 °F 82% 29.92 in 6.2 mi SW 17.3 mph 28.8 mph N/A   Mostly Cloudy
5:15 AM 48.2 °F 42.8 °F 82% 29.92 in 6.2 mi SW 17.3 mph - N/A   Mostly Cloudy
5:25 AM 48.2 °F 42.8 °F 82% 29.92 in 6.2 mi SW 16.1 mph 32.2 mph N/A   Mostly Cloudy
5:55 AM 48.2 °F 42.8 °F 82% 29.92 in 6.2 mi SW 17.3 mph - N/A   Mostly Cloudy
6:25 AM 48.2 °F 42.8 °F 82% 29.92 in 6.2 mi SSW 13.8 mph - N/A   Mostly Cloudy
6:39 AM 48.2 °F 42.8 °F 82% 29.89 in 6.2 mi SSW 13.8 mph - N/A   Mostly Cloudy
6:48 AM 48.2 °F 42.8 °F 82% 29.89 in 6.2 mi SSW 13.8 mph - N/A   Mostly Cloudy
6:55 AM 48.2 °F 42.8 °F 82% 29.89 in 6.2 mi SSW 12.7 mph 27.6 mph N/A   Mostly Cloudy
7:25 AM 48.2 °F 42.8 °F 82% 29.89 in 6.2 mi SSW 15.0 mph - N/A   Mostly Cloudy
7:55 AM 48.2 °F 42.8 °F 82% 29.89 in 6.2 mi SSW 12.7 mph - N/A   Overcast
8:25 AM 48.2 °F 42.8 °F 82% 29.89 in 6.2 mi SSW 12.7 mph 24.2 mph N/A   Mostly Cloudy
8:55 AM 48.2 °F 42.8 °F 82% 29.89 in 6.2 mi SSW 12.7 mph 24.2 mph N/A   Overcast
9:25 AM 48.2 °F 42.8 °F 82% 29.86 in 6.2 mi SSW 15.0 mph 27.6 mph N/A   Overcast
9:55 AM 48.2 °F 42.8 °F 82% 29.86 in 6.2 mi SSW 15.0 mph 28.8 mph N/A   Overcast
10:25 AM 48.2 °F 42.8 °F 82% 29.86 in 6.2 mi SSW 15.0 mph 29.9 mph N/A   Overcast
10:55 AM 48.2 °F 42.8 °F 82% 29.86 in 6.2 mi SSW 17.3 mph 32.2 mph N/A   Mostly Cloudy
11:25 AM 50.0 °F 42.8 °F 76% 29.83 in 6.2 mi SSW 15.0 mph 29.9 mph N/A   Overcast
11:55 AM 50.0 °F 42.8 °F 76% 29.83 in 6.2 mi SSW 13.8 mph - N/A   Mostly Cloudy
12:25 PM 50.0 °F 44.6 °F 82% 29.83 in 6.2 mi SW 16.1 mph 28.8 mph N/A   Overcast
12:55 PM 50.0 °F 44.6 °F 82% 29.80 in 6.2 mi SSW 16.1 mph 27.6 mph N/A   Overcast
1:25 PM 50.0 °F 44.6 °F 82% 29.77 in 6.2 mi SSW 17.3 mph 31.1 mph N/A   Overcast
1:55 PM 50.0 °F 44.6 °F 82% 29.77 in 6.2 mi SSW 13.8 mph 27.6 mph N/A   Overcast
2:25 PM 50.0 °F 44.6 °F 82% 29.74 in 6.2 mi SSW 13.8 mph 27.6 mph N/A   Overcast
2:55 PM 50.0 °F 44.6 °F 82% 29.74 in 6.2 mi SSW 15.0 mph - N/A   Overcast
3:25 PM 50.0 °F 44.6 °F 82% 29.71 in 6.2 mi SSW 15.0 mph 27.6 mph N/A   Overcast
3:55 PM 50.0 °F 44.6 °F 82% 29.71 in 6.2 mi SSW 16.1 mph 28.8 mph N/A   Overcast
4:25 PM 51.8 °F 44.6 °F 76% 29.71 in 6.2 mi SSW 16.1 mph - N/A   Overcast
4:55 PM 51.8 °F 44.6 °F 76% 29.68 in 6.2 mi SSW 15.0 mph 27.6 mph N/A   Overcast
5:25 PM 51.8 °F 44.6 °F 76% 29.68 in 6.2 mi SSW 17.3 mph 32.2 mph N/A   Overcast
5:55 PM 51.8 °F 44.6 °F 76% 29.65 in 6.2 mi SSW 15.0 mph 31.1 mph N/A   Overcast
6:25 PM 50.0 °F 44.6 °F 82% 29.62 in 6.2 mi SSW 16.1 mph 32.2 mph N/A Rain Light Rain
6:55 PM 50.0 °F 44.6 °F 82% 29.62 in 6.2 mi SSW 17.3 mph 31.1 mph N/A Rain Light Rain
7:25 PM 50.0 °F 46.4 °F 87% 29.59 in 6.2 mi SSW 16.1 mph 31.1 mph N/A   Drizzle
7:30 PM 50.0 °F 46.4 °F 87% 29.59 in 6.2 mi SSW 15.0 mph 31.1 mph N/A Rain Drizzle
7:37 PM 50.0 °F 46.4 °F 87% 29.59 in 6.2 mi SSW 16.1 mph 31.1 mph N/A   Drizzle
7:38 PM 50.0 °F 46.4 °F 87% 29.59 in 6.2 mi SSW 15.0 mph - N/A Rain Light Rain
7:55 PM 50.0 °F 46.4 °F 87% 29.59 in 6.2 mi SSW 15.0 mph 29.9 mph N/A Rain Light Rain
8:25 PM 50.0 °F 46.4 °F 87% 29.59 in 6.2 mi SSW 17.3 mph 33.4 mph N/A Rain Light Rain
8:55 PM 50.0 °F 46.4 °F 87% 29.59 in 6.2 mi SSW 17.3 mph 29.9 mph N/A Rain Light Rain
9:25 PM 50.0 °F 46.4 °F 87% 29.59 in 6.2 mi SSW 16.1 mph 29.9 mph N/A Rain Light Rain
9:29 PM 50.0 °F 46.4 °F 87% 29.59 in 6.2 mi SSW 15.0 mph 28.8 mph N/A Rain Light Rain
9:48 PM 50.0 °F 46.4 °F 87% 29.56 in 6.2 mi SSW 18.4 mph 29.9 mph N/A   Drizzle
9:55 PM 50.0 °F 46.4 °F 87% 29.56 in 6.2 mi SSW 16.1 mph 31.1 mph N/A Rain Light Rain
9:59 PM 48.2 °F 46.4 °F 93% 29.56 in 6.2 mi SSW 15.0 mph 31.1 mph N/A Rain Light Rain
10:00 PM 50.0 °F 46.4 °F 87% 29.56 in 6.2 mi SSW 15.0 mph 31.1 mph N/A Rain Drizzle
10:25 PM 48.2 °F 46.4 °F 93% 29.56 in 6.2 mi SSW 17.3 mph - N/A Rain Light Rain
10:55 PM 48.2 °F 44.6 °F 87% 29.56 in 6.2 mi SSW 16.1 mph 31.1 mph N/A   Drizzle
11:25 PM 48.2 °F 44.6 °F 87% 29.56 in 6.2 mi SSW 15.0 mph 27.6 mph N/A Rain Light Rain
11:55 PM 48.2 °F 44.6 °F 87% 29.56 in 6.2 mi SSW 16.1 mph 29.9 mph N/A Rain Light Rain